Weather History for Roseburg, OR

Change the Weather History Date:

Saturday, February 8, 2014

  Actual Average Record
Temperature  
Mean Temperature 53 °F 45 °F  
Max Temperature 61 °F 52 °F 72 °F (1963)
Min Temperature 45 °F 37 °F 13 °F (1989)
Degree Days  
Heating Degree Days 12 20  
Month to date heating degree days 180 166  
Since 1 July heating degree days 2631 2485  
Cooling Degree Days 0 0  
Month to date cooling degree days 0 0  
Year to date cooling degree days 0 0  
Growing Degree Days 2 (Base 50)    
Moisture  
Dew Point 44 °F    
Average Humidity 72    
Maximum Humidity 93    
Minimum Humidity 51    
Precipitation  
Precipitation 0.34 in 0.16 in 1.65 in (1960)
Month to date precipitation 1.06 1.35  
Year to date precipitation 2.82 6.44  
Sea Level Pressure  
Sea Level Pressure 29.81 in    
Wind  
Wind Speed 3 mph (SW)    
Max Wind Speed 17 mph    
Max Gust Speed 27 mph    
Visibility 7 miles    
Events Rain    
T = Trace of Precipitation, MM = Missing Value Source: NWS Daily Summary

Daily Weather History Graph

Daily Weather History Graph

Search for Another Location

Airport:

Trip Planner

Search our weather history database for the weather conditions in past years. The results will help you decide how hot, cold, wet, or windy it might be!

Date:

Astronomy

Feb. 08, 2014 Rise Set
Actual Time 7:20 AM PST 5:35 PM PST
Civil Twilight 6:50 AM PST 6:04 PM PST
Nautical Twilight 6:17 AM PST 6:38 PM PST
Astronomical Twilight 5:44 AM PST 7:11 PM PST
Moon 12:30 PM PST (2/8) 2:40 AM PST (2/8)
Length of Visible Light 11h 14m
Length of Day
10h 14m
Waxing Gibbous, 69% of the Moon is Illuminated
Feb 8
Waxing Gibbous
Feb 14
Full
Feb 22
Last Quarter
Mar 1
New
Mar 8
First Quarter

Hourly Weather History & Observations

Time (PST) Temp. Windchill Dew Point Humidity Pressure Visibility Wind Dir Wind Speed Gust Speed Precip Events Conditions
12:53 AM 48.0 °F - 43.0 °F 83% 29.80 in 10.0 mi Calm Calm - N/A   Overcast
1:53 AM 46.9 °F - 43.0 °F 86% 29.83 in 10.0 mi Calm Calm - 0.00 in Rain Light Rain
2:53 AM 46.9 °F - 43.0 °F 86% 29.86 in 9.0 mi Calm Calm - 0.00 in Rain Light Rain
3:53 AM 46.0 °F - 43.0 °F 89% 29.86 in 10.0 mi Calm Calm - 0.01 in Rain Light Rain
4:53 AM 46.0 °F - 44.1 °F 93% 29.86 in 8.0 mi Calm Calm - 0.01 in Rain Light Rain
5:53 AM 46.0 °F 43.9 °F 43.0 °F 89% 29.85 in 10.0 mi NW 4.6 mph - 0.01 in   Overcast
6:23 AM 45.0 °F 42.6 °F 43.0 °F 93% 29.83 in 4.0 mi WSW 4.6 mph - 0.01 in Rain Light Rain
6:53 AM 45.0 °F - 43.0 °F 93% 29.84 in 5.0 mi Calm Calm - 0.02 in Rain Light Rain
7:13 AM 45.0 °F - 43.0 °F 93% 29.83 in 5.0 mi Calm Calm - 0.00 in   Overcast
7:48 AM 44.6 °F - 42.8 °F 93% 29.83 in 4.0 mi Calm Calm - 0.00 in   Overcast
7:53 AM 45.0 °F - 43.0 °F 93% 29.84 in 3.0 mi Calm Calm - 0.00 in   Overcast
8:15 AM 45.0 °F 43.5 °F 43.0 °F 93% 29.84 in 2.0 mi West 3.5 mph - 0.02 in Rain Light Rain
8:26 AM 45.0 °F - 43.0 °F 93% 29.84 in 5.0 mi Calm Calm - 0.02 in Rain Light Rain
8:51 AM 44.6 °F - 42.8 °F 93% 29.83 in 2.5 mi Calm Calm - 0.04 in Rain Light Rain
8:53 AM 45.0 °F - 43.0 °F 93% 29.83 in 2.5 mi Calm Calm - 0.05 in Rain Light Rain
9:08 AM 45.0 °F - 43.0 °F 93% 29.82 in 2.0 mi Calm Calm - 0.01 in Rain Light Rain
9:43 AM 46.0 °F - 43.0 °F 89% 29.83 in 1.8 mi Calm Calm - 0.04 in Rain Rain
9:51 AM 46.4 °F - 44.6 °F 93% 29.83 in 1.2 mi Calm Calm - 0.06 in Rain Rain
9:53 AM 46.0 °F 44.8 °F 43.0 °F 89% 29.84 in 1.5 mi SW 3.5 mph - 0.06 in Rain Rain
10:30 AM 45.0 °F 42.6 °F 43.0 °F 93% 29.83 in 0.8 mi WNW 4.6 mph - 0.10 in Rain Rain
10:34 AM 45.0 °F 42.6 °F 43.0 °F 93% 29.84 in 1.0 mi West 4.6 mph - 0.11 in Rain Rain
10:53 AM 46.0 °F 43.9 °F 43.0 °F 89% 29.81 in 1.8 mi ENE 4.6 mph - 0.15 in Rain Rain
11:12 AM 46.0 °F - 44.1 °F 93% 29.80 in 3.0 mi Calm Calm - 0.03 in Rain Light Rain
11:19 AM 46.0 °F - 44.1 °F 93% 29.78 in 6.0 mi Calm Calm - 0.03 in Rain Light Rain
11:40 AM 46.9 °F - 44.1 °F 90% 29.78 in 10.0 mi Calm Calm - 0.03 in   Overcast
11:53 AM 46.9 °F - 44.1 °F 90% 29.77 in 10.0 mi Calm Calm - 0.03 in   Overcast
12:09 PM 46.9 °F - 44.1 °F 90% 29.75 in 7.0 mi WSW 4.6 mph - N/A   Overcast
12:53 PM 48.0 °F - 46.0 °F 93% 29.71 in 10.0 mi WSW 3.5 mph - N/A   Overcast
1:53 PM 50.0 °F - 46.0 °F 86% 29.70 in 10.0 mi Calm Calm - N/A   Overcast
2:53 PM 55.9 °F - 48.0 °F 75% 29.68 in 10.0 mi Calm Calm - N/A   Mostly Cloudy
3:53 PM 55.9 °F - 48.9 °F 77% 29.69 in 10.0 mi Calm Calm - N/A   Mostly Cloudy
4:53 PM 61.0 °F - 46.0 °F 58% 29.70 in 10.0 mi South 9.2 mph - N/A   Partly Cloudy
5:53 PM 60.1 °F - 42.1 °F 51% 29.72 in 10.0 mi South 9.2 mph 21.9 mph N/A   Scattered Clouds
6:53 PM 59.0 °F - 42.1 °F 53% 29.77 in 10.0 mi South 5.8 mph - N/A   Overcast
7:53 PM 57.0 °F - 42.1 °F 57% 29.80 in 10.0 mi South 3.5 mph - N/A   Partly Cloudy
8:53 PM 57.9 °F - 42.1 °F 56% 29.86 in 10.0 mi South 8.1 mph 18.4 mph N/A   Partly Cloudy
9:53 PM 57.9 °F - 43.0 °F 58% 29.91 in 10.0 mi Variable 6.9 mph - N/A   Overcast
10:53 PM 55.9 °F - 43.0 °F 62% 29.94 in 10.0 mi SW 3.5 mph - N/A   Mostly Cloudy
11:53 PM 55.9 °F - 43.0 °F 62% 29.97 in 10.0 mi SW 3.5 mph - N/A   Overcast